Total_Precipitation_Accumulation
1.59 1.59 1.90 1.78 1.65 1.35 0.84 1.30 0.49 0.40 0.38 0.27 0.47 0.50 0.17 0.12 0.04 0.09 0.12 0.09 0.03 0.03 0.03 0.04 0.06 0.07 0.16 0.17 0.13 0.16 0.11 0.12 0.19 0.20 0.10 0.16 0.13 0.06 0.06 0.08 0.08 0.12 0.12 0.22 0.27 0.16 0.11 0.12 0.19 0.11 0.15 0.26 0.24 0.26 0.30 0.23 0.15 0.14 0.26 0.27 0.19 0.21 0.23 0.24 0.22 0.28 0.31 0.34 0.33 0.26 0.50 0.53 0.82 0.55 0.40 0.40 0.34 0.25 0.13 0.15 0.15 0.24 0.23 0.41 0.25
1.58 1.48 1.74 1.72 1.56 0.78 1.33 1.14 0.40 0.49 0.46 0.59 0.52 0.64 0.59 0.35 0.19 0.06 0.08 0.03 0.04 0.06 0.08 0.10 0.15 0.13 0.15 0.17 0.14 0.09 0.14 0.10 0.09 0.10 0.12 0.09 0.08 0.05 0.04 0.10 0.12 0.21 0.17 0.22 0.32 0.19 0.13 0.12 0.13 0.20 0.19 0.20 0.24 0.31 0.28 0.20 0.16 0.29 0.35 0.19 0.14 0.24 0.18 0.24 0.21 0.20 0.27 0.31 0.33 0.21 0.18 0.28 0.32 0.43 0.50 0.33 0.20 0.14 0.13 0.12 0.12 0.11 0.23 0.43 0.29
1.22 2.15 2.40 1.87 1.24 1.23 1.04 1.15 0.52 0.45 0.57 0.59 0.60 0.80 0.91 0.82 0.51 0.29 0.06 0.04 0.06 0.09 0.11 0.08 0.07 0.18 0.20 0.15 0.14 0.10 0.07 0.05 0.06 0.05 0.04 0.06 0.08 0.11 0.10 0.09 0.09 0.17 0.15 0.22 0.16 0.13 0.09 0.10 0.10 0.14 0.18 0.18 0.23 0.21 0.17 0.23 0.29 0.27 0.14 0.14 0.21 0.18 0.16 0.24 0.15 0.15 0.21 0.19 0.20 0.16 0.17 0.19 0.17 0.15 0.15 0.19 0.17 0.14 0.10 0.11 0.15 0.12 0.47 0.19 0.15
1.44 2.16 2.14 1.10 1.53 1.88 1.49 0.96 0.80 0.42 0.88 0.35 0.65 0.67 0.62 0.45 0.61 0.43 0.34 0.30 0.18 0.13 0.15 0.21 0.10 0.17 0.21 0.12 0.09 0.04 0.09 0.02 0.04 0.09 0.09 0.06 0.09 0.13 0.12 0.11 0.17 0.14 0.16 0.10 0.09 0.09 0.10 0.10 0.18 0.13 0.19 0.20 0.23 0.21 0.19 0.28 0.23 0.14 0.12 0.15 0.16 0.14 0.13 0.13 0.11 0.18 0.07 0.06 0.05 0.09 0.23 0.13 0.11 0.10 0.14 0.14 0.12 0.08 0.07 0.10 0.17 0.13 0.13 0.09 0.09
1.44 1.35 2.31 1.69 2.18 1.86 1.44 1.31 0.47 0.87 0.85 0.30 0.50 0.60 0.64 0.43 0.54 0.43 0.51 0.29 0.23 0.07 0.10 0.09 0.09 0.08 0.08 0.13 0.07 0.08 0.04 0.06 0.11 0.08 0.08 0.06 0.06 0.13 0.15 0.17 0.18 0.21 0.15 0.17 0.10 0.14 0.23 0.13 0.21 0.19 0.20 0.25 0.19 0.20 0.17 0.18 0.19 0.10 0.07 0.09 0.07 0.08 0.08 0.13 0.17 0.16 0.22 0.10 0.11 0.11 0.22 0.10 0.07 0.12 0.11 0.07 0.07 0.08 0.06 0.10 0.07 0.07 0.09 0.06 0.08
1.60 1.81 1.93 1.81 1.76 1.40 1.13 0.74 0.64 0.80 0.97 0.57 0.62 0.67 0.75 0.50 0.35 0.37 0.43 0.44 0.18 0.13 0.18 0.14 0.05 0.07 0.08 0.09 0.07 0.06 0.08 0.10 0.14 0.10 0.05 0.06 0.08 0.18 0.26 0.32 0.21 0.14 0.20 0.15 0.09 0.14 0.19 0.18 0.19 0.20 0.20 0.16 0.14 0.15 0.15 0.09 0.08 0.08 0.10 0.07 0.08 0.08 0.10 0.09 0.14 0.19 0.31 0.31 0.26 0.30 0.23 0.09 0.06 0.22 0.09 0.12 0.09 0.07 0.13 0.07 0.07 0.08 0.07 0.09 0.12
1.57 1.56 2.00 1.06 1.25 1.08 0.87 1.09 0.94 0.78 0.83 0.54 0.78 0.84 0.70 0.53 0.48 0.37 0.66 0.69 0.45 0.20 0.21 0.16 0.16 0.10 0.09 0.08 0.08 0.11 0.13 0.16 0.14 0.26 0.07 0.06 0.08 0.15 0.34 0.26 0.19 0.19 0.21 0.20 0.21 0.19 0.18 0.20 0.25 0.17 0.14 0.17 0.11 0.12 0.08 0.08 0.10 0.08 0.07 0.06 0.06 0.09 0.08 0.10 0.17 0.10 0.18 0.32 0.35 0.13 0.08 0.08 0.07 0.16 0.11 0.15 0.11 0.15 0.10 0.08 0.12 0.07 0.08 0.11 0.07
1.36 1.88 1.24 0.99 0.88 0.86 1.00 1.02 1.11 1.09 0.96 0.75 0.79 0.63 0.72 0.76 0.51 0.65 0.82 0.78 0.57 0.36 0.38 0.22 0.15 0.15 0.08 0.09 0.12 0.17 0.22 0.28 0.37 0.18 0.11 0.10 0.13 0.17 0.20 0.22 0.19 0.21 0.28 0.17 0.14 0.18 0.12 0.23 0.20 0.16 0.11 0.10 0.09 0.08 0.05 0.07 0.05 0.06 0.04 0.03 0.03 0.02 0.02 0.08 0.03 0.14 0.13 0.23 0.22 0.13 0.33 0.05 0.06 0.09 0.08 0.12 0.10 0.10 0.08 0.08 0.09 0.11 0.08 0.09 0.11
1.91 1.67 1.17 1.01 1.14 1.23 0.64 0.99 0.82 0.80 0.73 0.85 0.85 0.68 0.71 0.81 0.82 0.83 0.93 1.05 0.57 0.27 0.29 0.21 0.13 0.12 0.11 0.12 0.14 0.19 0.18 0.59 0.24 0.18 0.21 0.12 0.14 0.10 0.11 0.18 0.11 0.09 0.10 0.06 0.07 0.08 0.10 0.12 0.10 0.09 0.08 0.06 0.05 0.03 0.04 0.03 0.05 0.04 0.02 0.02 0.01 0.02 0.02 0.03 0.03 0.02 0.15 0.12 0.09 0.13 0.08 0.08 0.08 0.08 0.18 0.16 0.19 0.11 0.09 0.07 0.06 0.07 0.08 0.11 0.08
2.26 2.52 1.49 1.00 1.27 0.57 0.89 0.89 1.10 0.74 1.02 1.17 1.05 0.74 0.67 0.73 0.73 0.49 0.72 0.55 0.43 0.42 0.18 0.14 0.22 0.14 0.11 0.14 0.13 0.17 0.28 0.32 0.38 0.33 0.23 0.20 0.21 0.15 0.10 0.08 0.11 0.10 0.09 0.06 0.08 0.07 0.05 0.05 0.06 0.07 0.09 0.05 0.01 0.01 0.01 0.05 0.03 0.02 0.01 0.01 0.01 0.00 0.00 0.01 0.01 0.02 0.35 0.16 0.11 0.05 0.03 0.03 0.03 0.03 0.15 0.09 0.09 0.06 0.08 0.06 0.04 0.06 0.06 0.16 0.12
2.32 2.93 2.22 1.35 1.27 0.97 0.66 1.00 1.25 0.81 0.87 0.79 0.84 0.46 0.52 0.69 0.77 0.41 0.29 0.53 0.59 0.28 0.10 0.17 0.12 0.15 0.14 0.14 0.17 0.17 0.20 0.23 0.29 0.32 0.27 0.25 0.22 0.07 0.09 0.09 0.10 0.09 0.07 0.07 0.08 0.07 0.07 0.09 0.07 0.09 0.06 0.01 0.01 0.02 0.03 0.02 0.01 0.01 0.01 0.01 0.00 0.00 0.00 0.03 0.04 0.21 0.26 0.35 0.06 0.06 0.11 0.02 0.04 0.06 0.09 0.13 0.15 0.09 0.07 0.06 0.13 0.13 0.04 0.06 0.07
2.39 2.57 1.97 1.45 1.95 0.75 0.63 0.53 0.65 0.77 0.80 0.95 0.67 0.59 0.57 0.77 0.64 0.62 0.50 0.44 0.38 0.21 0.15 0.13 0.14 0.18 0.18 0.12 0.17 0.26 0.22 0.32 0.24 0.35 0.31 0.25 0.17 0.14 0.11 0.15 0.08 0.06 0.04 0.06 0.07 0.06 0.07 0.09 0.04 0.05 0.02 0.00 0.02 0.03 0.01 0.00 0.00 0.00 0.00 0.00 0.00 0.00 0.02 0.02 0.15 0.57 0.32 0.42 0.24 0.07 0.08 0.05 0.08 0.13 0.12 0.21 0.12 0.07 0.10 0.07 0.09 0.07 0.07 0.07 0.07
2.69 2.55 1.81 1.87 1.16 0.61 0.48 0.57 0.58 0.65 0.76 0.98 0.84 0.66 0.81 0.77 1.08 1.08 0.50 0.25 0.28 0.23 0.21 0.16 0.16 0.16 0.16 0.29 0.26 0.29 0.19 0.15 0.21 0.26 0.52 0.24 0.12 0.14 0.10 0.12 0.05 0.05 0.05 0.07 0.05 0.05 0.03 0.05 0.02 0.02 0.01 0.01 0.01 0.00 0.00 0.00 0.00 0.00 0.00 0.00 0.01 0.01 0.04 0.16 0.14 0.32 0.50 0.37 0.27 0.05 0.04 0.04 0.04 0.10 0.11 0.16 0.15 0.08 0.11 0.08 0.06 0.05 0.04 0.04 0.05
3.40 3.16 1.86 1.38 1.57 1.72 0.54 0.66 0.47 0.53 0.75 1.14 0.83 1.06 1.19 0.93 1.16 0.98 0.40 0.25 0.30 0.47 0.28 0.34 0.26 0.14 0.19 0.25 0.23 0.18 0.23 0.14 0.18 0.18 0.20 0.23 0.08 0.08 0.06 0.09 0.08 0.05 0.05 0.06 0.03 0.03 0.03 0.03 0.03 0.01 0.01 0.02 0.00 0.00 0.00 0.00 0.00 0.01 0.01 0.00 0.00 0.00 0.06 0.12 0.09 0.27 0.54 0.25 0.09 0.12 0.05 0.07 0.06 0.09 0.07 0.15 0.14 0.11 0.11 0.06 0.06 0.03 0.04 0.04 0.04
3.42 3.50 2.46 1.55 1.32 1.58 1.29 0.63 0.74 0.78 0.89 1.06 1.14 1.24 1.10 0.97 1.05 0.80 0.40 0.22 0.18 0.52 0.46 0.36 0.30 0.19 0.27 0.31 0.41 0.21 0.18 0.16 0.21 0.19 0.18 0.10 0.05 0.06 0.06 0.11 0.07 0.04 0.03 0.01 0.01 0.01 0.02 0.01 0.02 0.01 0.02 0.01 0.01 0.01 0.00 0.00 0.01 0.01 0.01 0.00 0.00 0.01 0.01 0.55 0.79 0.34 0.15 0.26 0.14 0.12 0.14 0.04 0.07 0.04 0.07 0.13 0.11 0.06 0.06 0.05 0.03 0.03 0.03 0.02 0.03
3.05 3.79 2.47 1.48 1.38 1.38 1.64 1.67 1.17 1.08 1.33 1.25 1.27 1.39 1.09 1.10 0.76 0.65 0.39 0.24 0.18 0.36 0.43 0.38 0.31 0.42 0.21 0.26 0.37 0.36 0.31 0.20 0.15 0.12 0.13 0.12 0.09 0.07 0.12 0.12 0.07 0.04 0.05 0.02 0.02 0.02 0.03 0.01 0.00 0.01 0.01 0.01 0.01 0.01 0.01 0.01 0.01 0.01 0.00 0.01 0.00 0.01 0.02 0.10 0.56 0.09 0.07 0.17 0.10 0.10 0.10 0.19 0.02 0.03 0.09 0.12 0.08 0.06 0.04 0.03 0.07 0.03 0.03 0.02 0.03
4.29 3.32 1.79 1.24 0.98 1.04 1.03 1.62 1.62 1.42 1.32 1.31 0.86 1.33 1.06 0.88 0.86 0.63 0.59 0.45 0.28 0.39 0.38 0.31 0.46 0.34 0.18 0.29 0.22 0.37 0.32 0.30 0.15 0.22 0.09 0.17 0.09 0.11 0.08 0.07 0.04 0.02 0.02 0.03 0.01 0.01 0.01 0.00 0.01 0.01 0.00 0.00 0.00 0.00 0.01 0.00 0.00 0.00 0.00 0.00 0.00 0.01 0.04 0.02 0.16 0.34 0.09 0.14 0.03 0.03 0.10 0.10 0.04 0.04 0.12 0.11 0.09 0.06 0.07 0.05 0.06 0.03 0.02 0.02 0.04
3.61 2.73 2.34 1.42 1.09 0.91 1.18 0.83 1.29 1.29 1.92 1.65 1.16 0.93 0.99 0.77 0.86 0.82 0.77 0.61 0.78 0.50 0.40 0.39 0.37 0.26 0.22 0.27 0.27 0.27 0.29 0.24 0.28 0.23 0.18 0.32 0.11 0.07 0.07 0.05 0.04 0.02 0.01 0.02 0.04 0.03 0.03 0.04 0.07 0.01 0.00 0.00 0.00 0.00 0.00 0.00 0.00 0.00 0.00 0.00 0.00 0.00 0.01 0.02 0.12 0.20 0.08 0.10 0.12 0.08 0.08 0.01 0.03 0.06 0.06 0.10 0.07 0.06 0.05 0.04 0.04 0.03 0.08 0.03 0.03
2.90 2.71 2.27 2.26 1.43 1.29 1.10 1.12 1.30 1.35 1.48 1.92 2.36 2.07 1.52 1.87 1.44 0.75 1.03 1.11 0.98 1.31 1.02 0.60 0.37 0.32 0.38 0.35 0.40 0.43 0.32 0.31 0.27 0.26 0.21 0.35 0.29 0.09 0.11 0.05 0.04 0.03 0.02 0.01 0.05 0.05 0.08 0.02 0.00 0.01 0.00 0.00 0.00 0.00 0.00 0.00 0.00 0.00 0.00 0.00 0.01 0.01 0.01 0.13 0.33 0.27 0.36 0.09 0.10 0.07 0.04 0.00 0.14 0.11 0.15 0.07 0.07 0.07 0.04 0.03 0.03 0.06 0.05 0.05 0.04
2.60 2.59 2.76 2.49 1.35 1.47 1.30 1.37 1.14 1.56 1.98 2.00 1.86 1.50 2.28 2.61 1.91 1.10 1.42 1.34 1.80 1.73 1.14 0.97 0.94 0.83 0.77 0.61 0.62 0.58 0.53 0.72 0.43 0.54 0.26 0.23 0.24 0.35 0.11 0.05 0.04 0.02 0.03 0.02 0.02 0.05 0.00 0.02 0.01 0.00 0.00 0.00 0.00 0.00 0.00 0.00 0.00 0.00 0.01 0.02 0.01 0.01 0.19 0.31 0.13 0.29 0.23 0.09 0.05 0.09 0.08 0.11 0.14 0.17 0.17 0.11 0.05 0.04 0.03 0.03 0.03 0.02 0.03 0.02 0.02
2.68 3.08 2.85 2.37 2.20 1.69 2.10 2.25 1.61 1.86 2.38 2.03 2.09 1.62 1.25 1.70 1.38 2.09 1.38 1.47 1.07 1.30 1.04 0.73 0.64 0.50 0.74 0.64 0.56 0.60 1.05 0.99 1.14 0.99 0.19 0.53 0.18 0.14 0.14 0.11 0.05 0.01 0.02 0.02 0.00 0.02 0.06 0.03 0.02 0.00 0.00 0.00 0.00 0.00 0.01 0.01 0.01 0.01 0.01 0.00 0.01 0.47 0.36 0.11 0.28 0.38 0.55 0.12 0.04 0.14 0.11 0.11 0.15 0.16 0.14 0.05 0.06 0.06 0.03 0.02 0.02 0.02 0.03 0.03 0.02
2.65 2.61 2.53 2.66 2.14 2.79 2.37 2.65 2.93 2.65 2.06 2.45 2.67 1.74 2.16 2.07 2.29 1.76 2.49 1.76 1.23 0.87 1.02 0.87 1.28 0.84 0.48 0.63 1.05 1.24 1.32 1.27 1.26 1.33 0.89 0.42 0.40 0.10 0.11 0.08 0.07 0.02 0.01 0.01 0.01 0.01 0.05 0.05 0.05 0.01 0.00 0.00 0.00 0.04 0.04 0.04 0.01 0.01 0.00 0.01 0.29 0.88 0.39 0.33 0.45 0.36 0.26 0.12 0.15 0.12 0.14 0.08 0.08 0.14 0.13 0.04 0.06 0.03 0.01 0.02 0.01 0.02 0.05 0.03 0.04
2.26 2.12 2.28 2.56 3.03 2.53 2.24 2.53 2.51 2.76 3.15 2.68 2.66 2.07 1.71 1.83 2.01 2.16 2.13 1.93 1.74 0.76 1.09 1.58 1.21 1.19 0.95 0.81 1.38 1.41 1.33 1.56 1.68 1.23 1.18 0.41 0.49 0.08 0.09 0.07 0.05 0.03 0.02 0.02 0.04 0.01 0.01 0.06 0.05 0.03 0.00 0.00 0.09 0.17 0.14 0.12 0.11 0.00 0.02 0.21 0.93 0.54 0.28 0.29 0.26 0.36 0.17 0.10 0.11 0.14 0.10 0.13 0.13 0.20 0.09 0.05 0.08 0.04 0.02 0.03 0.04 0.03 0.03 0.03 0.02
1.78 1.84 1.92 2.18 2.84 2.89 2.86 3.88 2.31 2.07 2.04 2.04 2.87 2.27 1.95 2.24 2.33 1.74 1.32 1.21 1.32 1.21 1.47 1.10 1.61 1.85 1.61 1.51 1.53 1.78 1.60 1.61 0.80 0.95 0.67 0.63 0.40 0.16 0.11 0.06 0.04 0.01 0.02 0.04 0.03 0.02 0.03 0.03 0.13 0.05 0.01 0.08 0.26 0.23 0.23 0.28 0.11 0.15 0.18 0.83 0.76 0.49 0.46 0.58 0.52 0.53 0.21 0.17 0.20 0.22 0.12 0.13 0.13 0.07 0.04 0.07 0.09 0.04 0.04 0.07 0.08 0.05 0.06 0.02 0.02
3.18 2.89 2.17 2.58 2.25 2.34 2.24 3.03 3.18 3.87 3.12 2.97 3.20 2.80 2.25 3.16 2.87 2.09 2.07 1.49 1.64 1.44 1.53 1.93 2.42 2.49 2.20 1.73 1.15 1.70 2.09 1.96 1.11 0.86 0.86 0.72 0.77 0.43 0.35 0.39 0.20 0.23 0.03 0.19 0.14 0.24 0.16 0.34 0.14 0.04 0.23 0.14 0.13 0.28 0.23 0.43 0.11 0.11 0.26 0.11 0.27 0.22 0.67 0.72 0.76 0.70 0.48 0.26 0.25 0.11 0.05 0.04 0.03 0.03 0.05 0.12 0.04 0.04 0.06 0.19 0.19 0.15 0.05 0.03 0.03
2.45 2.01 1.83 2.30 2.11 2.01 2.40 2.62 2.64 2.32 1.97 2.54 2.62 2.63 2.84 3.58 2.94 3.02 2.60 2.45 1.81 2.27 2.19 2.23 2.16 2.11 1.69 1.28 1.53 1.68 1.68 1.16 1.69 1.17 1.01 0.71 0.55 0.36 0.56 0.43 0.30 0.41 0.10 0.35 0.27 0.22 0.19 0.21 0.08 0.22 0.14 0.13 0.10 0.06 0.05 0.10 0.12 0.18 0.26 0.17 0.24 0.29 0.77 0.67 0.92 0.46 0.41 0.43 0.11 0.05 0.01 0.01 0.00 0.01 0.03 0.03 0.04 0.07 0.12 0.21 0.17 0.12 0.07 0.05 0.03
3.38 3.54 3.00 2.22 2.25 2.38 3.02 3.46 2.69 2.14 2.38 2.40 2.89 2.59 2.44 3.37 2.80 2.63 2.33 2.49 2.42 2.55 2.97 2.20 2.32 2.47 2.50 2.28 2.12 1.93 1.61 1.25 1.06 0.94 0.88 1.15 1.32 1.16 0.72 0.82 0.53 0.62 0.26 0.63 0.53 0.26 0.42 0.54 0.57 0.13 0.07 0.09 0.06 0.11 0.08 0.14 0.22 0.22 0.53 0.44 0.23 0.42 0.86 1.05 0.52 0.32 0.38 0.25 0.06 0.00 0.02 0.01 0.01 0.01 0.01 0.02 0.02 0.06 0.12 0.16 0.21 0.16 0.15 0.09 0.07
3.30 2.71 2.71 3.15 2.57 2.41 2.35 2.90 2.79 2.96 2.62 3.15 2.88 2.81 2.63 2.22 1.88 2.65 2.61 2.09 1.93 2.38 2.67 2.38 2.82 2.24 1.47 2.12 1.89 1.94 1.57 1.55 1.34 1.30 0.96 1.28 1.58 1.01 0.97 1.00 1.09 1.04 0.76 0.55 0.77 0.77 0.46 0.34 0.39 0.40 0.20 0.15 0.50 0.28 0.34 0.40 0.30 0.34 0.38 0.37 0.67 0.60 1.66 1.19 0.25 0.20 0.32 0.32 0.36 0.09 0.03 0.01 0.01 0.00 0.02 0.03 0.03 0.06 0.16 0.20 0.21 0.26 0.16 0.18 0.33
2.35 2.52 3.60 3.88 2.44 2.88 2.75 2.66 2.83 3.61 3.04 2.92 3.00 2.74 2.37 2.64 2.27 2.39 2.72 2.57 2.15 1.97 2.89 2.88 1.92 1.75 1.63 1.59 1.87 2.02 2.11 1.34 1.51 1.54 1.79 1.24 1.04 0.85 0.68 0.87 1.01 1.01 0.60 0.39 0.80 0.69 0.72 0.93 0.74 0.37 0.16 0.32 0.30 0.34 0.48 0.39 0.53 0.57 0.19 0.71 0.79 1.12 1.53 1.05 0.40 0.19 0.31 0.36 0.42 0.38 0.12 0.03 0.01 0.08 0.08 0.02 0.02 0.05 0.09 0.18 0.30 0.32 0.21 0.31 0.36
2.25 2.68 3.33 4.02 3.36 3.27 3.08 2.77 2.82 2.90 3.33 3.19 3.06 1.81 2.20 2.26 2.02 1.72 2.72 1.86 1.89 1.89 1.90 2.11 1.85 1.45 1.35 1.31 1.74 2.19 1.80 1.93 1.86 2.03 1.45 1.80 0.90 1.02 0.90 0.84 0.50 0.63 0.35 0.52 0.62 0.82 1.01 0.54 0.67 0.36 0.53 0.79 0.39 0.27 0.10 0.16 0.57 0.39 0.65 1.12 1.26 0.98 1.44 0.58 0.71 0.31 0.32 0.35 0.30 0.19 0.23 0.22 0.07 0.09 0.04 0.02 0.02 0.06 0.09 0.18 0.26 0.62 0.36 0.23 0.36
2.34 3.03 2.43 2.60 2.85 3.00 4.14 3.75 2.59 3.32 3.32 2.82 2.30 2.04 2.17 2.16 1.96 1.80 1.50 1.30 1.15 1.24 1.26 1.20 1.45 1.68 1.10 1.15 1.24 1.73 2.20 2.25 1.84 2.00 1.52 1.78 1.53 1.44 1.32 2.04 1.48 0.90 0.57 0.43 0.57 0.86 0.87 0.83 0.82 0.57 0.57 0.75 0.48 0.32 0.21 0.39 0.34 0.35 1.07 1.29 0.94 0.89 0.89 0.87 1.05 1.13 0.51 0.59 0.47 0.39 0.34 0.12 0.14 0.15 0.09 0.08 0.08 0.01 0.06 0.08 0.10 0.35 0.49 0.35 0.39
1.72 2.06 2.42 2.54 2.48 2.54 2.18 2.15 2.45 2.90 2.40 3.07 2.64 2.20 1.56 1.53 1.74 1.41 1.24 1.11 0.93 0.71 0.81 0.74 1.07 1.53 1.53 1.48 1.58 1.36 1.44 2.06 2.33 1.92 2.02 1.72 1.86 1.59 2.03 1.92 1.46 1.15 0.86 1.27 0.74 0.83 0.81 0.54 0.83 0.69 1.03 0.92 0.75 0.42 0.16 0.30 0.59 0.75 0.48 1.27 1.37 1.44 1.08 1.06 0.61 0.94 1.01 0.85 0.61 0.60 0.33 0.12 0.10 0.15 0.13 0.04 0.03 0.01 0.03 0.07 0.11 0.16 0.41 0.72 0.41
1.91 1.77 2.40 2.71 2.59 2.05 2.12 2.11 2.15 2.85 2.31 2.18 1.92 2.17 1.87 1.46 1.33 1.43 1.52 0.87 0.86 0.68 1.22 1.05 1.00 1.69 1.56 1.69 1.67 1.16 1.37 1.85 2.42 1.61 1.56 1.45 1.81 1.94 1.56 1.51 2.02 1.64 0.98 0.91 0.81 0.75 0.89 0.45 0.50 0.34 0.31 0.26 0.35 0.29 0.22 0.78 0.48 0.56 0.52 1.16 1.77 0.94 0.97 1.19 1.08 1.21 0.91 1.04 0.77 0.41 0.49 0.38 0.29 0.14 0.17 0.10 0.04 0.02 0.04 0.04 0.12 0.18 0.21 0.47 0.36
1.82 1.73 2.09 2.00 1.60 2.46 2.47 2.27 2.52 3.15 2.34 2.58 2.25 1.99 2.28 2.63 2.10 1.72 1.19 0.84 0.84 0.91 1.07 1.51 1.55 1.61 1.61 1.47 1.72 1.21 1.32 1.67 1.71 1.60 1.69 1.48 1.63 1.68 1.94 1.44 2.10 1.48 1.19 1.13 0.65 0.72 0.58 0.64 0.80 0.50 0.38 0.65 0.76 0.51 0.44 0.67 0.28 0.53 0.56 1.02 1.12 1.04 1.31 0.87 0.99 1.46 0.99 0.52 1.07 0.73 0.69 1.23 0.79 0.46 0.32 0.05 0.03 0.05 0.06 0.10 0.08 0.11 0.14 0.22 0.26
1.95 1.95 2.69 2.22 1.73 2.79 3.48 3.92 3.15 3.34 2.31 2.54 1.51 1.84 2.90 2.43 2.49 2.05 1.57 1.03 1.22 1.22 1.76 1.92 1.08 1.11 1.33 1.85 2.03 1.77 2.15 1.84 2.15 2.28 2.16 1.96 1.70 1.68 1.59 1.64 1.63 1.95 1.33 0.98 1.23 1.21 1.04 1.17 1.03 0.64 0.25 0.65 0.64 0.51 0.52 0.75 0.59 0.51 0.80 1.32 1.02 1.09 1.01 0.97 1.33 1.40 1.21 1.10 0.65 0.40 0.69 1.59 1.78 1.45 1.15 0.81 0.29 0.16 0.08 0.05 0.19 0.12 0.18 0.26 0.19
2.56 2.78 2.86 3.49 3.29 3.81 3.48 2.56 2.64 2.73 2.14 1.45 2.09 2.75 2.55 2.12 2.06 2.27 1.69 1.56 1.35 1.57 1.49 1.53 1.40 1.09 1.07 1.32 1.71 2.20 2.11 1.80 2.11 2.14 2.04 1.58 1.93 1.81 1.42 1.78 1.54 2.16 1.79 1.78 1.83 1.28 1.05 1.31 1.36 0.85 0.47 0.43 0.53 0.57 1.01 0.76 0.99 1.32 0.97 1.17 1.00 1.04 0.93 1.18 1.60 1.39 1.14 0.92 0.95 0.78 0.72 1.58 1.44 1.49 0.71 1.11 0.83 0.45 0.13 0.11 0.17 0.13 0.21 0.29 0.33
1.95 2.20 1.81 2.12 2.36 4.06 4.56 3.42 3.21 3.01 1.98 2.04 2.85 2.85 2.27 1.91 2.13 2.11 2.28 1.53 1.24 1.23 1.26 1.66 1.59 1.53 1.78 1.57 2.77 2.38 1.81 1.86 1.77 1.99 2.10 1.83 1.57 1.53 1.95 1.65 2.25 1.92 2.06 1.84 1.54 2.03 1.44 1.12 0.81 0.86 0.99 0.94 0.68 0.87 1.30 0.61 1.12 1.15 1.15 1.44 1.54 1.38 1.44 1.38 2.27 1.69 1.45 0.87 1.29 1.22 1.22 1.06 1.20 0.95 1.15 0.76 1.58 0.97 0.15 0.11 0.17 0.17 0.43 0.24 0.36
1.80 2.54 2.96 3.40 3.29 3.80 2.67 3.21 3.91 3.76 3.24 2.89 3.26 2.71 2.59 1.97 2.08 1.99 2.01 1.81 1.39 1.36 1.68 1.79 1.98 2.17 3.11 2.39 1.80 1.73 1.43 2.07 1.61 1.76 1.95 1.65 1.71 1.82 1.88 2.09 2.16 2.22 2.58 1.69 2.53 2.29 1.70 1.02 1.04 0.82 1.17 1.10 1.00 1.37 1.10 0.97 1.28 1.20 1.62 1.60 2.21 1.81 1.61 2.48 1.83 1.63 1.49 1.64 1.71 1.28 1.32 1.29 0.69 0.70 0.97 0.83 0.98 0.79 0.57 0.31 0.09 0.24 0.23 0.56 0.49
1.91 2.35 5.03 5.86 3.11 3.80 4.70 4.23 4.05 3.73 3.68 3.97 3.53 3.00 2.67 1.96 1.91 2.33 2.01 2.23 2.03 1.24 1.75 2.08 2.18 3.22 2.74 3.01 3.31 2.46 1.69 1.39 1.39 2.26 2.12 1.91 1.75 1.76 2.04 2.37 2.29 1.99 1.48 1.83 2.05 1.40 1.31 1.51 0.99 0.79 0.84 0.82 1.21 1.12 1.08 1.70 1.91 1.51 1.89 1.70 2.28 2.09 2.20 1.76 1.68 1.60 1.21 1.29 1.41 0.66 1.05 0.95 0.98 1.26 0.77 1.04 1.68 1.07 0.65 0.83 0.88 0.87 0.71 0.69 0.63
2.42 3.54 4.82 3.55 3.11 3.17 3.11 3.94 3.67 4.62 4.06 2.61 1.94 1.94 1.99 1.89 2.13 2.04 1.65 1.89 1.59 1.11 1.74 2.91 2.23 2.39 2.16 2.38 2.75 2.58 1.84 1.43 1.58 2.16 2.61 2.24 2.39 2.08 2.37 2.48 2.15 1.80 1.73 1.31 1.20 1.11 1.50 1.77 1.66 1.01 0.82 0.70 0.71 1.18 1.20 1.39 1.23 2.24 2.28 1.89 1.68 1.43 1.54 1.30 1.26 1.32 1.21 1.17 1.25 1.30 1.60 1.50 1.28 0.94 1.27 0.86 1.21 1.18 0.97 0.92 0.79 1.08 1.48 0.74 0.74
1.74 3.09 4.03 4.03 3.31 3.81 3.60 2.63 2.92 3.19 2.47 2.51 1.97 2.05 1.62 1.88 1.75 1.56 1.48 1.89 1.72 1.91 1.59 2.88 1.78 1.75 2.21 1.98 1.63 1.84 2.82 1.96 2.00 1.94 1.57 1.56 2.08 1.79 2.08 2.22 1.50 2.00 1.34 1.24 1.09 0.99 1.40 1.81 1.86 2.01 1.71 1.20 1.67 1.16 2.77 1.89 1.74 1.84 1.65 2.61 1.50 1.35 1.19 1.57 1.72 1.55 1.66 1.76 1.28 2.22 1.98 1.85 1.76 1.33 1.60 1.29 1.03 1.10 1.03 1.09 1.45 0.99 0.88 1.14 1.10
2.16 3.60 3.30 3.66 3.39 3.65 4.74 3.63 3.33 3.37 2.56 2.29 1.77 2.22 1.60 1.75 1.83 2.15 1.87 1.43 1.87 2.11 2.03 1.34 1.89 1.98 2.16 1.52 1.90 1.70 2.03 1.89 1.44 1.91 1.28 1.17 1.55 1.17 1.42 1.94 1.40 1.08 1.02 1.03 1.46 1.39 1.23 1.84 1.67 1.59 1.42 1.46 2.51 1.41 2.19 1.44 2.15 2.10 1.82 1.53 1.50 1.19 1.56 1.63 1.91 2.05 2.07 1.90 2.09 2.65 2.51 2.46 1.71 1.41 2.08 1.28 1.72 1.20 1.54 1.32 1.39 1.66 1.46 1.98 2.13
2.87 2.36 2.77 3.58 3.81 3.13 3.88 3.95 4.83 3.86 2.24 1.68 1.55 1.32 1.33 2.51 2.89 2.17 1.35 2.06 2.32 1.95 1.89 2.29 2.46 2.46 3.08 2.50 2.20 1.52 1.81 2.03 1.54 1.32 1.43 1.24 1.45 1.42 1.44 1.77 1.47 1.30 1.30 1.16 1.25 1.67 1.23 1.50 2.09 1.41 2.22 2.24 2.58 2.06 1.80 2.12 2.65 3.08 2.29 2.24 1.48 1.43 1.87 1.68 1.53 1.53 1.86 2.03 1.61 2.05 2.03 1.68 1.96 2.33 2.50 1.84 1.69 1.55 0.96 1.08 1.45 1.04 1.16 1.92 1.11
3.36 3.08 2.41 2.68 2.95 3.20 3.49 2.50 3.55 2.46 2.35 2.05 1.86 2.09 1.06 2.34 1.68 1.80 3.16 2.12 2.11 2.50 3.29 3.04 2.39 2.03 2.26 2.12 2.17 1.23 1.03 1.13 1.23 1.00 1.13 1.48 1.13 1.19 1.22 1.37 1.29 1.09 1.19 1.30 0.96 1.46 1.48 1.44 1.51 1.45 1.36 1.95 1.18 1.66 1.38 2.67 2.28 1.91 2.00 1.34 2.09 1.84 1.79 2.15 1.57 1.35 1.53 1.66 2.06 2.09 1.88 2.38 2.71 2.42 2.56 2.20 1.00 1.44 1.12 0.80 0.87 0.87 0.72 1.02 0.71
2.80 2.66 2.67 2.75 3.04 3.62 3.30 2.17 2.73 2.54 1.77 1.97 2.02 1.95 1.90 1.85 1.75 3.09 2.73 2.77 2.88 2.84 3.04 2.61 1.97 2.19 1.90 1.89 1.74 1.02 1.18 1.35 1.15 1.14 0.91 1.04 0.75 0.90 1.19 1.12 1.30 1.02 0.85 1.17 1.05 1.05 1.49 2.13 1.68 1.63 1.24 1.21 1.94 1.02 1.21 2.10 1.60 1.72 2.75 1.71 1.91 1.62 1.42 2.05 1.32 1.45 1.58 1.51 1.35 1.59 1.74 1.67 1.29 1.33 1.86 1.56 1.60 1.08 1.19 1.19 0.51 0.44 0.66 0.95 0.77
2.05 3.43 2.97 3.78 3.72 3.36 2.26 2.13 3.09 2.86 1.96 1.63 1.56 2.14 1.81 2.49 2.75 2.24 2.92 2.06 2.13 2.25 2.36 1.82 1.69 1.55 1.50 1.23 1.35 1.29 1.58 1.26 1.24 1.01 1.16 1.07 0.98 1.02 1.25 1.08 1.32 0.88 1.10 1.22 0.99 1.89 1.51 1.73 1.60 1.19 1.69 1.50 1.66 1.19 1.53 1.78 1.58 2.06 2.79 1.94 3.97 2.64 2.42 2.41 1.13 1.37 1.42 1.51 1.82 1.13 0.98 1.22 1.73 1.18 1.85 1.29 0.96 1.24 1.20 0.92 0.75 0.83 0.93 1.07 1.24
2.22 1.52 2.79 4.02 4.15 3.82 2.11 1.71 2.08 2.71 2.44 2.46 3.08 2.91 2.17 2.25 2.20 2.57 2.55 2.20 2.30 2.04 1.61 1.36 1.43 1.47 1.20 1.30 1.72 1.69 1.58 1.22 0.96 0.63 0.74 0.78 0.85 0.73 0.82 0.96 0.75 1.24 1.14 1.40 1.31 1.49 1.24 1.38 1.30 1.92 1.34 1.17 1.51 1.78 1.17 1.72 1.70 1.39 1.17 1.56 2.37 1.51 1.45 2.02 1.88 1.37 1.35 1.69 1.55 1.20 1.20 1.27 1.29 1.43 1.28 0.86 0.80 0.72 0.59 0.91 1.05 0.81 1.31 1.53 1.13
2.68 2.08 4.13 4.46 2.17 1.93 1.70 1.48 2.15 2.98 2.78 2.36 3.52 2.40 2.32 3.25 3.04 3.00 2.26 1.80 1.42 1.69 1.32 1.03 1.31 2.04 1.68 1.32 1.57 1.27 0.98 0.88 0.69 0.78 0.58 0.57 0.84 1.07 0.88 1.11 0.68 0.67 1.33 1.91 1.74 1.39 1.28 1.25 1.75 1.74 0.93 1.26 1.43 1.52 0.76 0.87 0.89 0.97 0.70 1.70 1.55 1.07 1.24 1.25 1.75 1.51 1.72 1.60 1.27 1.24 1.35 1.06 1.16 1.05 0.84 0.80 0.97 0.87 0.56 0.85 0.67 0.61 0.86 0.78 0.93
2.26 2.96 2.62 3.34 2.95 2.66 1.74 1.66 2.98 2.91 2.35 1.51 1.46 1.97 2.21 2.90 2.51 2.57 2.62 1.93 1.70 1.74 1.49 1.75 1.42 1.83 0.99 1.08 0.98 0.95 0.93 0.84 1.12 0.85 1.13 1.11 0.96 0.86 0.94 0.75 1.04 0.96 1.16 1.56 1.31 1.50 1.45 1.76 1.43 1.14 1.09 1.59 1.29 1.81 1.73 0.89 1.07 1.72 1.19 1.50 1.26 1.16 1.11 1.39 1.10 1.02 1.88 1.86 1.26 1.43 1.49 1.31 0.97 0.50 0.72 0.42 0.57 0.45 0.60 0.62 0.42 0.75 1.54 1.25 0.70
2.04 2.32 2.93 5.07 2.85 2.51 3.57 2.89 3.27 2.72 2.12 1.44 1.86 2.53 2.43 2.32 2.53 1.73 1.75 1.64 1.43 1.54 1.28 1.04 0.90 0.94 1.11 1.18 1.17 1.32 1.11 0.96 0.86 0.91 1.08 1.08 0.77 0.55 0.61 0.62 1.00 1.09 1.76 1.02 1.18 1.15 1.08 1.25 1.31 1.19 1.18 1.66 1.88 1.71 1.45 1.22 1.49 1.29 0.99 0.97 2.13 1.25 1.32 1.21 1.23 1.58 1.24 1.92 1.85 1.27 1.46 1.39 0.94 0.85 0.55 0.92 0.71 0.59 0.37 0.62 0.53 0.91 0.69 0.71 0.82
2.68 2.47 3.26 3.90 1.99 2.19 2.69 3.18 3.54 2.92 2.45 3.11 2.75 2.95 2.65 3.69 1.47 1.39 1.43 0.99 0.88 0.91 1.62 0.93 0.75 1.63 1.30 1.21 1.91 1.91 1.79 1.26 1.10 0.99 0.61 0.70 0.70 0.59 0.49 0.74 1.00 1.07 1.27 1.19 1.13 0.97 1.06 1.42 1.89 1.93 2.67 1.67 1.30 1.35 1.61 1.72 2.15 1.33 1.34 1.58 1.55 1.15 1.24 1.39 1.06 1.09 1.80 2.15 1.54 1.30 1.39 1.42 0.98 0.68 0.79 0.50 0.39 0.64 0.49 0.57 0.65 0.84 0.59 0.54 0.94